Regional Weather Roundup
Issued by NWS

Home | Current Version | Previous Version | Graphics & Text | Print | Product List | Glossary Off
Versions: 1 2 3 4 5 6 7 8 9 10 11 12 13 14 15 16 17 18 19 20 21 22 23 24 25 26 27 28 29 30 31 32 33 34 35 36 37 38 39 40 41 42 43 44 45 46 47 48 49 50

000
ASUS43 KTOP 260108
RWRKS

WEATHER ROUNDUP FOR KANSAS
NATIONAL WEATHER SERVICE GOODLAND KS
800 PM CDT MON SEP 25 2017

NOTE:  "FAIR" INDICATES FEW OR NO CLOUDS BELOW 12,000 FEET WITH NO
SIGNIFICANT WEATHER AND/OR OBSTRUCTIONS TO VISIBILITY.

KSZ001>006-013>018-027>032-041>047-260200-
NORTHWEST KANSAS

CITY           SKY/WX    TMP DP  RH WIND       PRES   REMARKS
GOODLAND       CLOUDY    49  48  97 N12       30.05R
HAYS           CLOUDY    55  54  96 NE10      29.96F
HILL CITY      CLOUDY    54  53  97 N12       30.02R
RUSSELL        LGT RAIN  56  55  97 N10       29.97S
$$

KSZ061>065-074>080-084>089-260200-
SOUTHWEST KANSAS

CITY           SKY/WX    TMP DP  RH WIND       PRES   REMARKS
DODGE CITY     LGT RAIN  56  55  97 NE10      29.95F
ELKHART          N/A     54  55 100 N8          N/A
GARDEN CITY    CLOUDY    54  52  93 N13       30.01R
GREAT BEND     LGT RAIN  58  57  97 NE7       29.97F
LIBERAL        CLOUDY    56  55  97 N13       29.99R FOG
PRATT          LGT RAIN  59  58  94 NE13      29.93F
$$

KSZ066>073-081>083-090>101-260200-
SOUTHEAST KANSAS

CITY           SKY/WX    TMP DP  RH WIND       PRES   REMARKS
CHANUTE        CLOUDY    74  65  73 NW12      29.92R
COFFEYVILLE    CLOUDY    77  67  71 CALM      29.87R
HUTCHINSON     LGT RAIN  64  63  96 NE3       29.94F
MEDICINE LODGE   N/A     63  61  93 NE9       29.88F
NEWTON         LGT RAIN  63  62  97 NW3       29.96R
PARSONS        CLOUDY    74  68  81 CALM      29.90R
WICHITA INTL   RAIN      65  64  97 N9        29.94S
WICHITA JABRA  RAIN      64  64 100 NW9       29.94S
WICHITA MCCONL RAIN      64  63  94 N9        29.94R
WINFIELD       RAIN      67  67 100 N12       29.93R FOG
$$

KSZ007>012-019>026-033>040-048>060-102>105-260200-
NORTHEAST KANSAS

CITY           SKY/WX    TMP DP  RH WIND       PRES   REMARKS
CONCORDIA      LGT RAIN  59  59 100 N6        29.97R
EMPORIA        LGT RAIN  66  65  96 NW5       29.93S
LAWRENCE       CLOUDY    73  68  84 W14       29.91R
MANHATTAN      LGT RAIN  66  66 100 CALM      29.94R
MARYSVILLE     RAIN      64  63  94 CALM      29.95R
OLATHE IND     MOCLDY    76  66  71 S5        29.90R
OLATHE EXE     PTCLDY    75  66  73 S5        29.89R
SALINA         LGT RAIN  64  62  93 NW12      29.96R
TOPEKA BILLARD HVY RAIN  66  66 100 NW9       29.93R FOG
TOPEKA FORBES  LGT RAIN  67  66  97 N8        29.93R
$$




USA.gov is the U.S. government's official web portal to all federal, state and local government web resources and services.